Location: Clason Point
(40.8136°N, 73.8618°W)
Time: 06:14:25
(UTC+00:00)

Genesis I - Pass Details

Date: 16 September 2019
Orbit: 488 x 536 km, 64.5° (Epoch: 22 October)

Event Time Altitude Azimuth Distance (km) Brightness Sun altitude
Rises 23:25:20 0° 327° (NNW) 2,657 7.5 -5.0°
Reaches altitude 10° 23:27:32 10° 328° (NNW) 1,757 6.5 -5.4°
Maximum altitude 23:31:29 87° 55° (NE) 519 3.2 -6.2°
Drops below altitude 10° 23:35:19 10° 148° (SSE) 1,714 5.5 -6.9°
Sets 23:37:27 0° 148° (SSE) 2,586 6.4 -7.3°
